Location: Boca de Tacagua
(10.5333°N, 66.9833°W)
Time: 02:06:09
(UTC+00:00)

Cosmos 1666 Rocket - Pass Details

Date: 05 July 2022
Orbit: 602 x 633 km, 82.5° (Epoch: 08 August)

Event Time Altitude Azimuth Distance (km) Brightness Sun altitude
Exits shadow 07:44:36 27° 31° (NNE) 1,190 5.5 -32.4°
Drops below altitude 10° 07:46:48 10° 17° (NNE) 1,996 6.7 -31.9°
Sets 07:49:05 0° 12° (NNE) 2,906 7.6 -31.5°
